Flight Track Log - Related Links

Times and Time Zones

All times are in EDT time to prevent confusion due to time zone crossing. See the DAL6225 flight status page for this flight to view local times or setup timezone preferences in your user account.

Time Position Orientation Groundspeed Altitude Reporting Facility
EDT Latitude Longitude Course Direction KTS MPH feet Rate Location/Type
Fri 09:05:19 AM 43.0978 -89.3111 99° East 184 212 3,000  Level Chicago Center
Fri 09:06:21 AM 43.0872 -89.2169 99° East 253 291 4,800 1,597 Climbing Chicago Center
Fri 09:07:23 AM 43.0919 -89.1083 87° East 273 314 6,300 1,805 Climbing Chicago Center
Fri 09:08:24 AM 43.0939 -88.9906 89° East 297 342 8,500 1,854 Climbing Chicago Center
Fri 09:09:26 AM 43.0994 -88.8719 86° East 311 358 10,100 1,500 Climbing Chicago Center
Fri 09:10:28 AM 43.1042 -88.7081 88° East 365 420 11,600 1,452 Climbing Chicago Center
Fri 09:11:30 AM 43.1092 -88.5594 87° East 387 445 13,100 1,610 Climbing Chicago Center
Fri 09:12:31 AM 43.1125 -88.4050 88° East 405 466 14,900 1,659 Climbing Chicago Center
Fri 09:13:33 AM 43.1175 -88.2458 87° East 420 483 16,500 1,984 Climbing Chicago Center
Fri 09:14:35 AM 43.1278 -88.0569 86° East 428 493 19,000 1,984 Climbing Chicago Center
Fri 09:15:37 AM 43.1361 -87.8936 86° East 433 498 20,600 1,452 Climbing Chicago Center
Fri 09:16:39 AM 43.1442 -87.7269 86° East 441 507 22,000 1,415 Climbing Chicago Center
Fri 09:17:40 AM 43.1519 -87.5603 86° East 443 510 23,500 1,268 Climbing Chicago Center
Fri 09:18:42 AM 43.1586 -87.3706 87° East 455 524 24,600 1,161 Climbing Chicago Center
Fri 09:19:44 AM 43.1664 -87.1956 86° East 461 531 25,900 1,258 Climbing Chicago Center
Fri 09:20:46 AM 43.1733 -87.0208 87° East 460 529 27,200 1,161 Climbing Chicago Center
Fri 09:21:48 AM 43.1794 -86.8450 87° East 462 532 28,300 919 Climbing Chicago Center
Fri 09:22:50 AM 43.1858 -86.6678 87° East 465 535 29,100 581 Climbing Chicago Center
Fri 09:23:52 AM 43.1917 -86.4867 87° East 473 544 29,500 581 Climbing Chicago Center
Fri 09:24:54 AM 43.1983 -86.3011 87° East 484 557 30,300 976 Climbing Chicago Center
Fri 09:25:55 AM 43.2061 -86.0775 87° East 483 556 31,500 829 Climbing Chicago Center
Fri 09:26:57 AM 43.2111 -85.8919 88° East 478 550 32,000 242 Climbing Chicago Center
Fri 09:27:59 AM 43.2150 -85.7053 88° East 483 556 32,000  Level Chicago Center
Fri 09:29:01 AM 43.2203 -85.5147 88° East 494 568 32,000 387 Level Chicago Center
Fri 09:30:03 AM 43.2250 -85.3247 88° East 498 573 32,800 583 Climbing Chicago Center
Fri 09:30:44 AM 43.2267 -85.1994 89° East 485 558 33,000 119 Climbing Cleveland Center
Fri 09:31:44 AM 43.2297 -85.0117 89° East 485 558 33,000  Level Cleveland Center
Fri 09:32:44 AM 43.2325 -84.8294 89° East 479 551 33,000  Level Cleveland Center
Fri 09:33:44 AM 43.2581 -84.6428 79° East 479 551 33,000  Level Cleveland Center
Fri 09:34:45 AM 43.2914 -84.4567 76° East 493 567 33,000  Level Cleveland Center
Fri 09:35:44 AM 43.2847 -84.2767 93° East 473 544 33,000  Level Cleveland Center
Fri 09:36:44 AM 43.2803 -84.0908 92° East 478 550 33,000  Level Cleveland Center
Fri 09:37:44 AM 43.2758 -83.8825 92° East 483 556 33,000  Level Cleveland Center
Fri 09:38:44 AM 43.2747 -83.7000 90° East 483 556 33,000  Level Cleveland Center
Fri 09:39:44 AM 43.2714 -83.5086 91° East 488 562 33,000  Level Cleveland Center
Fri 09:40:44 AM 43.2675 -83.3258 92° East 488 562 33,000  Level Cleveland Center
Fri 09:41:45 AM 43.2656 -83.1433 91° East 477 549 33,000  Level Cleveland Center
Fri 09:42:44 AM 43.2608 -82.9664 92° East 471 542 33,000  Level Cleveland Center
Fri 09:43:44 AM 43.2561 -82.7894 92° East 471 542 33,000  Level Cleveland Center
Fri 09:44:44 AM 43.2489 -82.6069 93° East 471 542 33,000  Level Cleveland Center
Fri 09:45:44 AM 43.2375 -82.4269 95° East 471 542 33,000  Level Cleveland Center
Fri 09:46:44 AM 43.2256 -82.2500 95° East 471 542 33,000  Level Cleveland Center
Fri 09:47:50 AM 43.2000 -82.0333 99° East 470 541 33,000  Level Toronto Center
Fri 09:48:50 AM 43.2000 -81.8500 90° East 470 541 33,000  Level Toronto Center
Fri 09:49:50 AM 43.1833 -81.6833 98° East 480 552 33,000  Level Toronto Center
Fri 09:50:50 AM 43.1667 -81.5000 97° East 480 552 33,000  Level Toronto Center
Fri 09:51:50 AM 43.1500 -81.3000 96° East 490 564 33,000  Level Toronto Center
Fri 09:52:50 AM 43.1333 -81.1333 98° East 490 564 33,000  Level Toronto Center
Fri 09:53:50 AM 43.1167 -80.9500 97° East 490 564 33,000  Level Toronto Center
Fri 09:54:50 AM 43.1167 -80.7500 90° East 480 552 33,000  Level Toronto Center
Fri 09:55:50 AM 43.1000 -80.6000 99° East 480 552 33,000  Level Toronto Center
Fri 09:56:50 AM 43.0833 -80.4167 97° East 480 552 33,000  Level Toronto Center
Fri 09:57:50 AM 43.0667 -80.2000 96° East 490 564 33,000  Level Toronto Center
Fri 09:58:50 AM 43.0500 -80.0167 97° East 490 564 33,000  Level Toronto Center
Fri 09:59:50 AM 43.0333 -79.8333 97° East 500 575 33,000  Level Toronto Center
Fri 10:00:50 AM 43.0167 -79.6500 97° East 490 564 33,000 -200 Level Toronto Center
Fri 10:01:50 AM 43.0000 -79.4667 97° East 480 552 32,600 -650 Descending Toronto Center
Fri 10:02:50 AM 42.9833 -79.2833 97° East 490 564 31,700 -800 Descending Toronto Center
Fri 10:03:50 AM 42.9667 -79.1167 98° East 490 564 31,000 -350 Descending Toronto Center
Fri 10:04:50 AM 42.9500 -78.9333 97° East 490 564 31,000  Level Toronto Center
Fri 10:05:50 AM 42.9333 -78.7167 96° East 500 575 31,000  Level Toronto Center
Fri 10:06:33 AM 42.9272 -78.6239 95° East 484 557 31,000  Level Cleveland Center
Fri 10:07:33 AM 42.9069 -78.4317 98° East 496 571 31,000  Level Cleveland Center
Fri 10:08:33 AM 42.8867 -78.2456 98° East 502 578 31,000  Level Cleveland Center
Fri 10:09:32 AM 42.8683 -78.0564 97° East 502 578 31,000  Level Cleveland Center
Fri 10:10:33 AM 42.8494 -77.8703 98° East 502 578 31,000  Level Cleveland Center
Fri 10:11:33 AM 42.8283 -77.6869 99° East 502 578 31,000  Level Cleveland Center
Fri 10:13:51 AM 42.7711 -77.2692 100° East 506 582 31,000  Level Boston Center
Fri 10:14:51 AM 42.7431 -77.0858 102° East 501 577 31,000  Level Boston Center
Fri 10:15:49 AM 42.7175 -76.8944 100° East 501 577 31,000  Level Boston Center
Fri 10:17:02 AM 42.6844 -76.6689 101° East 501 577 31,000  Level Boston Center
Fri 10:18:14 AM 42.6558 -76.4806 102° East 506 582 31,000 -316 Level Boston Center
Fri 10:19:15 AM 42.6258 -76.2611 100° East 506 582 30,300 -857 Descending Boston Center
Fri 10:20:13 AM 42.5978 -76.0986 103° East 494 568 29,300 -655 Descending Boston Center
Fri 10:21:14 AM 42.5667 -75.8939 102° East 494 568 29,000 -149 Descending Boston Center
Fri 10:22:14 AM 42.5389 -75.7089 101° East 494 568 29,000  Level Boston Center
Fri 10:23:15 AM 42.5106 -75.5244 102° East 494 568 29,000 -50 Level Boston Center
Fri 10:24:15 AM 42.4803 -75.3342 102° East 494 568 28,900  Descending Boston Center
Fri 10:25:12 AM 42.4344 -75.1578 109° East 499 574 29,000 -356 Climbing Boston Center
Fri 10:26:13 AM 42.3739 -74.9919 116° Southeast 493 567 28,200 -1,240 Descending Boston Center
Fri 10:27:13 AM 42.3147 -74.8294 116° Southeast 485 558 26,500 -2,033 Descending Boston Center
Fri 10:28:14 AM 42.2575 -74.6731 116° Southeast 480 552 24,100 -2,350 Descending Boston Center
Fri 10:29:13 AM 42.2019 -74.5281 117° Southeast 459 528 21,800 -2,067 Descending Boston Center
Fri 10:30:13 AM 42.1561 -74.4033 116° Southeast 437 503 20,000 -1,377 Descending Boston Center
Fri 10:31:15 AM 42.0983 -74.2561 118° Southeast 407 468 19,000 -492 Descending Boston Center
Fri 10:32:15 AM 42.0436 -74.1456 124° Southeast 390 449 19,000 -356 Level Boston Center
Fri 10:33:13 AM 41.9636 -74.0539 140° Southeast 372 428 18,300 -864 Descending Boston Center
Fri 10:34:13 AM 41.8689 -73.9789 149° Southeast 362 417 17,300 -800 Descending Boston Center
Fri 10:35:13 AM 41.7906 -73.9186 150° Southeast 344 396 16,700 -992 Descending Boston Center
Fri 10:36:14 AM 41.7203 -73.8642 150° Southeast 317 365 15,300 -1,328 Descending Boston Center
Fri 10:37:15 AM 41.6458 -73.8292 161° South 293 337 14,000 -1,362 Descending Boston Center
Fri 10:38:35 AM 41.5500 -73.8500 189° South 259 298 12,100 -1,414 Descending New York TRACON
Fri 10:39:35 AM 41.4833 -73.8667 191° South 253 291 10,700 -1,400 Descending New York TRACON
Fri 10:40:35 AM 41.4167 -73.8667 180° South 255 293 9,300 -950 Descending New York TRACON
Fri 10:41:35 AM 41.3500 -73.8167 151° Southeast 255 293 8,800 -650 Descending New York TRACON
Fri 10:42:35 AM 41.3000 -73.7500 135° Southeast 258 297 8,000 -400 Descending New York TRACON
Fri 10:43:35 AM 41.2333 -73.7000 151° Southeast 255 293 8,000 -700 Level New York TRACON
Fri 10:44:35 AM 41.1833 -73.6500 143° Southeast 254 292 6,600 -1,650 Descending New York TRACON
Fri 10:45:35 AM 41.1167 -73.6333 169° South 238 274 4,700 -1,300 Descending New York TRACON
Fri 10:46:35 AM 41.0500 -73.6500 191° South 221 254 4,000 -350 Descending New York TRACON
Fri 10:47:35 AM 41.0000 -73.7000 217° Southwest 188 216 4,000  Level New York TRACON
Fri 10:48:35 AM 40.9667 -73.7167 201° Southwest 139 160 4,000 -400 Level New York TRACON
Fri 10:49:35 AM 40.9333 -73.7333 201° Southwest 124 143 3,200 -500 Descending New York TRACON
Fri 10:50:35 AM 40.9167 -73.7667 237° Southwest 124 143 3,000 -450 Descending New York TRACON
Fri 10:51:35 AM 40.8833 -73.7833 201° Southwest 128 147 2,300 -700 Descending New York TRACON
Fri 10:52:35 AM 40.8500 -73.8167 217° Southwest 125 144 1,600 -650 Descending New York TRACON
Fri 10:53:35 AM 40.8167 -73.8333 201° Southwest 121 139 1,000 -650 Descending New York TRACON
Fri 10:54:35 AM 40.8000 -73.8667 237° Southwest 129 148 300 -700 Descending New York TRACON
Fri 10:56:00 AM 40.7772 -73.8726 180° South  Level Estimated

Login

Don't have an account? Register now (free) for customized features, flight alerts, and more!